Location: Newark
(27.9675°N, 86.8869°E)
Time: 10:45:17
(UTC+00:00)

Vanguard 1 Rocket - All Passes

Search period start: 16 October 2019 00:00
Search period end: 26 October 2019 00:00
Orbit: 650 x 4226 km, 34.3° (Epoch: 13 October)

Date Brightness Start Highest point End Pass type
(mag) Time Alt. Az. Time Alt. Az. Time Alt. Az.
16 Oct - 01:19:47 10° SSE 01:24:56 14° ESE 01:31:32 10° E daylight
16 Oct - 03:37:52 10° SW 03:49:59 60° SE 04:12:18 10° ENE daylight
16 Oct - 06:03:21 10° WSW 06:20:57 80° NNW 06:47:55 10° ENE daylight
16 Oct - 08:32:58 10° WNW 08:57:00 76° N 09:21:41 10° E daylight
16 Oct - 11:05:20 10° WNW 11:31:56 77° SSW 11:50:50 10° SE daylight
16 Oct - 13:41:38 10° WNW 14:01:02 33° SW 14:13:52 10° S visible
17 Oct - 02:28:11 10° SSW 02:37:56 38° SE 02:55:06 10° ENE daylight
17 Oct - 04:51:29 10° WSW 05:05:57 88° SSE 05:31:34 10° ENE daylight
17 Oct - 07:19:19 10° W 07:40:10 74° N 08:06:43 10° E daylight
17 Oct - 09:50:16 10° WNW 10:16:21 89° NNE 10:38:24 10° ESE daylight
17 Oct - 12:24:04 10° WNW 12:48:13 51° SW 13:04:17 10° SSE visible
17 Oct - 15:09:41 10° WSW 15:14:46 11° WSW 15:19:14 10° SW visible
18 Oct - 01:20:09 10° SSE 01:26:53 20° SE 01:36:44 10° E daylight
18 Oct - 03:40:30 10° SW 03:52:20 70° SE 04:14:55 10° ENE daylight
18 Oct - 06:06:30 10° W 06:23:54 76° N 06:50:47 10° ENE daylight
18 Oct - 08:36:00 10° WNW 08:59:53 79° NNE 09:24:44 10° ESE daylight
18 Oct - 11:08:02 10° WNW 11:34:09 69° SW 11:53:21 10° SE daylight
18 Oct - 13:45:31 10° W 14:02:48 26° SW 14:15:07 10° S visible
19 Oct - 02:30:26 10° SSW 02:40:03 48° SE 02:58:03 10° ENE daylight
19 Oct - 04:54:30 10° WSW 05:08:44 84° NNW 05:34:14 10° ENE daylight
19 Oct - 07:22:29 10° W 07:43:12 74° N 08:09:46 10° E daylight
19 Oct - 09:53:04 10° WNW 10:18:51 84° SSW 10:41:09 10° ESE daylight
19 Oct - 12:27:06 10° WNW 12:50:03 42° SW 13:06:11 10° SSE visible
20 Oct - 01:21:34 10° S 01:28:54 26° SE 01:40:43 10° E daylight
20 Oct - 03:43:19 10° WSW 03:54:53 81° SSE 04:17:29 10° ENE daylight
20 Oct - 06:09:42 10° W 06:26:56 74° N 06:53:43 10° E daylight
20 Oct - 08:38:58 10° WNW 09:02:39 84° NNE 09:27:39 10° ESE daylight
20 Oct - 11:10:48 10° WNW 11:36:12 60° SW 11:55:37 10° SE daylight
20 Oct - 13:50:18 10° W 14:04:34 20° SW 14:15:37 10° SSW visible
21 Oct - 00:17:46 10° SE 00:18:22 10° ESE 00:18:58 10° ESE daylight
21 Oct - 02:32:57 10° SW 02:42:20 58° SE 03:00:48 10° ENE daylight
21 Oct - 04:57:39 10° W 05:11:41 78° NNW 05:36:58 10° ENE daylight
21 Oct - 07:25:36 10° WNW 07:46:09 76° N 08:12:48 10° E daylight
21 Oct - 09:55:51 10° WNW 10:21:10 76° SSW 10:43:42 10° SE daylight
21 Oct - 12:30:29 10° WNW 12:51:49 35° SW 13:07:44 10° S visible
22 Oct - 01:23:32 10° SSW 01:31:00 35° SE 01:44:06 10° ENE daylight
22 Oct - 03:46:19 10° WSW 03:57:38 90° NNW 04:20:05 10° ENE daylight
22 Oct - 06:12:55 10° W 06:30:01 73° N 06:56:42 10° E daylight
22 Oct - 08:41:53 10° WNW 09:05:17 90° NNE 09:30:26 10° ESE daylight
22 Oct - 11:13:43 10° WNW 11:38:07 51° SW 11:57:37 10° SSE visible
22 Oct - 13:56:59 10° W 14:06:27 14° SW 14:14:32 10° SSW visible
23 Oct - 00:16:00 10° SSE 00:20:26 16° SE 00:26:24 10° E daylight
23 Oct - 02:35:41 10° SW 02:44:52 70° SSE 03:03:27 10° ENE daylight
23 Oct - 05:00:52 10° W 05:14:43 74° N 05:39:48 10° ENE daylight
23 Oct - 07:28:41 10° WNW 07:49:02 80° NNE 08:15:45 10° ESE daylight
23 Oct - 09:58:40 10° WNW 10:23:21 68° SW 10:46:02 10° SE daylight
23 Oct - 12:34:24 10° W 12:53:35 28° SW 13:08:47 10° S visible
24 Oct - 01:25:52 10° SSW 01:33:16 44° SE 01:47:09 10° ENE daylight
24 Oct - 03:49:25 10° WSW 04:00:34 81° NNW 04:22:44 10° ENE daylight
24 Oct - 06:16:07 10° WNW 06:33:04 73° N 06:59:43 10° E daylight
24 Oct - 08:44:45 10° WNW 09:07:45 83° SSW 09:33:02 10° ESE daylight
24 Oct - 11:16:52 10° WNW 11:39:58 43° SW 11:59:19 10° SSE visible
25 Oct - 00:17:16 10° S 00:22:37 22° SE 00:30:42 10° E daylight
25 Oct - 02:38:36 10° WSW 02:47:34 82° SSE 03:06:04 10° ENE daylight
25 Oct - 05:04:07 10° W 05:17:49 71° N 05:42:43 10° E daylight
25 Oct - 07:31:42 10° WNW 07:51:48 85° NNE 08:18:34 10° ESE daylight
25 Oct - 10:01:34 10° WNW 10:25:25 59° SW 10:48:05 10° SE daylight
25 Oct - 12:39:13 10° W 12:55:27 21° SW 13:09:07 10° S visible
